User: anonymous   Login
Location: Marineo
(37.9500°N, 13.4170°E)
Time: 19:38:26
(UTC+02:00)
Language:

ISS - Orbit

View from above orbital plane
View from above orbital plane
View from above satellite
View from above satellite

Ground track
Ground track

The orbit data is extracted from the following two-line orbital elements,

1 25544U 98067A   22224.35081675  .00007002  00000-0  12986-3 0  9995
2 25544  51.6444  58.3608 0005725 111.5505 306.9934 15.50149505353890
Epoch (UTC): 12 August 2022 08:25:10
Eccentricity: 0.0005725
inclination: 51.6444°
perigee height: 412 km
apogee height: 420 km
right ascension of ascending node: 58.3608°
argument of perigee: 111.5505°
revolutions per day: 15.50149505
mean anomaly at epoch: 306.9934°
orbit number at epoch: 35389

The dashed part of the orbit path shows where the satellite is in the earth's shadow,  

DLR